Weather History for North Platte, NE

Change the Weather History Date:

Saturday, January 21, 2012

  Actual Average Record
Temperature  
Mean Temperature 27 °F 25 °F  
Max Temperature 42 °F 39 °F 71 °F (1950)
Min Temperature 11 °F 11 °F -22 °F (1930)
Degree Days  
Heating Degree Days 38 40  
Month to date heating degree days 764 845  
Since 1 July heating degree days 3330 3625  
Cooling Degree Days 0 0  
Month to date cooling degree days 0 0  
Year to date cooling degree days 0 0  
Moisture  
Dew Point 13 °F    
Average Humidity 60    
Maximum Humidity 84    
Minimum Humidity 36    
Precipitation  
Precipitation 0.00 in 0.01 in 0.31 in (1917)
Month to date precipitation 0.09 0.23  
Year to date precipitation 0.09 0.23  
Snow  
Snow 0.00 in 0.20 in 6.80 in (2007)
Month to date snowfall 1.7 3.3  
Since 1 July snowfall 6.2 14.1  
Snow Depth 0.00 in    
Sea Level Pressure  
Sea Level Pressure 29.77 in    
Wind  
Wind Speed 11 mph (SSE)    
Max Wind Speed 22 mph    
Max Gust Speed 29 mph    
Visibility 10 miles    
Events      
T = Trace of Precipitation, MM = Missing Value Source: NWS Daily Summary

Daily Weather History Graph

Daily Weather History Graph

Search for Another Location

Airport:

Trip Planner

Search our weather history database for the weather conditions in past years. The results will help you decide how hot, cold, wet, or windy it might be!

Date:

Astronomy

Jan. 21, 2012 Rise Set
Actual Time 8:02 AM CST 5:45 PM CST
Civil Twilight 7:32 AM CST 6:15 PM CST
Nautical Twilight 6:59 AM CST 6:49 PM CST
Astronomical Twilight 6:26 AM CST 7:21 PM CST
Moon 6:35 AM CST (1/21) 4:23 PM CST (1/21)
Length of Visible Light 10h 42m
Length of Day
9h 42m
Waning Crescent, 3% of the Moon is Illuminated
Jan 21
Waning Crescent
Jan 23
New
Jan 30
First Quarter
Feb 7
Full
Feb 14
Last Quarter

Hourly Weather History & Observations

Time (CST) Temp. Windchill Dew Point Humidity Pressure Visibility Wind Dir Wind Speed Gust Speed Precip Events Conditions
12:53 AM 17.6 °F 10.7 °F 10.4 °F 73% 30.06 in 10.0 mi South 4.6 mph - N/A   Overcast
1:33 AM 14.0 °F - 8.6 °F 79% 30.05 in 10.0 mi Calm Calm - N/A   Scattered Clouds
1:53 AM 12.9 °F 5.2 °F 8.1 °F 81% 30.13 in 10.0 mi SE 4.6 mph - N/A   Clear
2:53 AM 12.0 °F 2.7 °F 7.0 °F 80% 30.14 in 10.0 mi South 5.8 mph - N/A   Clear
3:53 AM 12.0 °F 1.5 °F 6.1 °F 77% 30.10 in 10.0 mi South 6.9 mph - N/A   Clear
4:53 AM 12.0 °F 0.5 °F 6.1 °F 77% 30.07 in 10.0 mi South 8.1 mph - N/A   Clear
5:53 AM 12.9 °F 5.2 °F 7.0 °F 77% 30.04 in 10.0 mi SSE 4.6 mph - N/A   Clear
6:53 AM 15.8 °F 4.2 °F 8.6 °F 73% 29.88 in 10.0 mi SSE 9.2 mph - N/A   Clear
7:53 AM 17.1 °F 5.0 °F 9.0 °F 71% 29.98 in 10.0 mi South 10.4 mph 16.1 mph N/A   Clear
8:53 AM 19.9 °F 5.7 °F 10.0 °F 65% 29.94 in 10.0 mi SSE 16.1 mph 26.5 mph N/A   Clear
9:53 AM 24.1 °F 15.2 °F 10.9 °F 57% 29.92 in 10.0 mi South 8.1 mph - N/A   Clear
10:53 AM 28.9 °F 18.6 °F 12.9 °F 51% 29.86 in 10.0 mi SSE 12.7 mph - N/A   Clear
11:53 AM 35.1 °F 25.9 °F 16.0 °F 46% 29.77 in 10.0 mi SE 13.8 mph - N/A   Clear
12:53 PM 37.9 °F 29.2 °F 16.0 °F 41% 29.70 in 10.0 mi South 15.0 mph - N/A   Clear
1:53 PM 42.1 °F 34.5 °F 18.0 °F 38% 29.65 in 10.0 mi South 15.0 mph 25.3 mph N/A   Clear
2:53 PM 41.0 °F 32.2 °F 18.0 °F 40% 29.60 in 10.0 mi SSE 18.4 mph 26.5 mph N/A   Clear
3:53 PM 37.9 °F 29.2 °F 16.0 °F 41% 29.59 in 10.0 mi SSE 15.0 mph 23.0 mph N/A   Clear
4:53 PM 34.0 °F 24.6 °F 16.0 °F 48% 29.57 in 10.0 mi SE 13.8 mph 24.2 mph N/A   Clear
5:53 PM 32.0 °F 20.8 °F 16.0 °F 52% 29.54 in 10.0 mi SE 17.3 mph - N/A   Clear
6:53 PM 28.0 °F 18.1 °F 16.0 °F 61% 29.52 in 10.0 mi ESE 11.5 mph - N/A   Clear
7:53 PM 30.9 °F 19.8 °F 17.1 °F 57% 29.49 in 10.0 mi SE 16.1 mph 23.0 mph N/A   Clear
8:53 PM 30.0 °F 20.5 °F 16.0 °F 56% 29.47 in 10.0 mi SE 11.5 mph 20.7 mph N/A   Clear
9:53 PM 28.0 °F 17.0 °F 16.0 °F 61% 29.43 in 10.0 mi SE 13.8 mph - N/A   Clear
10:53 PM 27.0 °F 16.1 °F 16.0 °F 63% 29.39 in 10.0 mi SSE 12.7 mph - N/A   Clear
11:53 PM 26.1 °F 19.4 °F 16.0 °F 66% 29.40 in 10.0 mi SE 5.8 mph - N/A   Clear